Regional Weather Roundup
Issued by NWS Kansas City/Pleasant Hill, MO

Home | Current Version | Previous Version | Graphics & Text | Print | Product List | Glossary Off
Versions: 1 2 3 4 5 6 7 8 9 10 11 12 13 14 15 16 17 18 19 20 21 22 23 24 25 26 27 28 29 30 31 32 33 34 35 36 37 38 39 40 41 42 43 44 45 46 47 48 49 50

000
ASUS43 KEAX 260411
RWREAX

WEATHER ROUNDUP FOR EASTERN KANSAS AND NORTHWEST MISSOURI
NATIONAL WEATHER SERVICE KANSAS CITY/PLEASANT HILL MO
1000 PM CST TUE NOV 25 2014

KSZ040-057-103>105-MOZ028-029-037-043-260500-
...KANSAS CITY METROPOLITAN AREA...

CITY           SKY/WX    TMP DP  RH WIND       PRES   REMARKS
K.C. INTL      CLOUDY    37  21  52 S13       30.02F WCI  29
K.C. DOWNTOWN  CLOUDY    40  20  44 S9        30.04F WCI  34
LEES SUMMIT    CLOUDY    36  18  48 S9        30.05F WCI  29
OLATHE - IXD   CLOUDY    37  21  52 S13       30.03F WCI  29
OLATHE - OJC   CLOUDY    35  22  58 S7        30.03F WCI  29
LAWRENCE       CLOUDY    39  22  50 SE12      30.02F WCI  32

$$

MOZ001>008-011>017-020>025-030>033-038>040-044>046-053-054-260500-
...NORTHERN AND CENTRAL MISSOURI...

CITY           SKY/WX    TMP DP  RH WIND       PRES   REMARKS
ST. JOSEPH     CLOUDY    38  22  52 S10       30.01F WCI  31
MOSBY          CLOUDY    34  19  55 CALM      30.05F
WARRENSBURG    CLOUDY    32  19  59 SE8       30.08F WCI  25
WHITEMAN AFB   MOCLDY    33  19  57 S8        30.08F WCI  26
CLINTON        MOCLDY    34  23  64 S6        30.11F WCI  29
SEDALIA        PTCLDY    29  17  61 S10       30.11F WCI  20
WARSAW         NOT AVBL
MARSHALL       MOCLDY    32  21  64 SE5       30.11F WCI  27
CHILLICOTHE      N/A     32  17  54 SE5       30.07F WCI  27
MOBERLY        CLEAR     28  16  59 SE6       30.12F WCI  22
KIRKSVILLE     PTCLDY    25  19  78 SE8       30.10F WCI  16

$$

MOZ041-047>049-056>058-063>065-088>090-097-260500-
...EASTERN AND SOUTHERN MISSOURI...

CITY           SKY/WX    TMP DP  RH WIND       PRES   REMARKS
ST. LOUIS INTL PTCLDY    30  22  72 SE5       30.18F WCI  25
SPIRIT OF STL  CLEAR     25  22  88 CALM      30.17S
COLUMBIA       CLEAR     31  16  54 SE7       30.13S WCI  24
JEFFERSON CITY CLEAR     25  19  78 SE7       30.16S WCI  17
MEXICO         CLEAR     28  25  86 SE5       30.14S WCI  23
ROLLA          CLEAR     27  17  66 SE8       30.12S WCI  19
LEBANON        PTCLDY    32  18  55 CALM      30.13S
OSAGE BEACH    PTCLDY    27  18  69 SE5       30.13F WCI  21
SPRINGFIELD    MOCLDY    29  21  72 SE6       30.12S WCI  23
BRANSON        MOCLDY    36  19  51 S3        30.15R
NEVADA         MOCLDY    34  23  64 S9        30.11S WCI  26
JOPLIN         PTCLDY    35  21  56 SE9       30.10F WCI  28
WEST PLAINS    CLEAR     26  19  74 CALM      30.15S

$$

IAZ060-094-KSZ022-034>040-054-083-096-NEZ052-066-093-260500-
...KANSAS...SOUTHEAST NEBRASKA AND IOWA...

CITY           SKY/WX    TMP DP  RH WIND       PRES   REMARKS
TOPEKA         CLOUDY    42  23  46 S10       29.99F
MANHATTAN      CLOUDY    43  26  51 S15G23    29.94F
EMPORIA        PTCLDY    36  23  59 S15       30.00R WCI  27
CHANUTE        MOCLDY    36  25  64 S8        30.06F WCI  30
WICHITA        MOCLDY    42  27  55 S12       29.98F
OMAHA          LGT RAIN  38  27  64 SE15      29.89F WCI  29
LINCOLN        CLOUDY    43  25  49 S18G25    29.85F WCI  35
FALLS CITY     CLOUDY    40  23  50 S13       29.93F WCI  32
LAMONI         MOCLDY    30  16  56 SE12      30.01F WCI  20
DES MOINES     CLOUDY    30  14  51 S10       30.02F WCI  21

$$




USA.gov is the U.S. government's official web portal to all federal, state and local government web resources and services.